Temperature
23 21 21 22 28 32 32 32 32 32 32 31 30 30 31 30 30 28 23 23 22 22 22 22 21 20 20 20 19 20 20 20 20 20 20 20 20 20 20 20 20 19 19 19 19 19 20 20 20
22 21 22 26 32 32 31 32 32 31 31 30 29 29 30 28 25 23 22 22 22 22 22 22 21 21 20 20 20 20 20 20 20 20 20 20 20 20 20 20 20 20 20 20 20 20 20 20 20
23 22 25 31 33 32 31 32 32 31 30 30 30 29 29 27 24 23 22 22 21 21 21 22 22 21 21 20 20 20 20 20 20 20 20 20 20 20 20 20 20 19 19 19 19 19 19 19 19
22 24 28 32 32 32 32 32 32 32 31 30 30 29 27 24 24 23 22 22 21 21 21 22 22 21 21 21 20 20 20 20 20 20 20 20 20 20 19 19 19 19 19 19 19 19 19 19 18
23 29 32 33 32 32 32 32 32 32 32 31 30 30 27 23 23 23 22 22 22 21 21 22 22 21 21 21 21 20 20 20 20 20 20 20 19 19 19 19 19 19 19 19 19 19 19 18 18
28 31 33 32 32 32 33 32 32 32 31 30 30 30 26 22 22 22 22 22 22 21 21 21 22 21 21 21 20 20 20 20 20 20 20 19 19 19 19 19 19 19 19 19 19 19 19 19 18
30 32 33 33 32 32 32 32 32 32 32 31 30 30 26 24 23 22 22 22 22 21 21 20 21 21 21 20 20 20 20 20 20 20 19 19 19 19 19 19 19 19 19 19 19 19 19 19 19
29 32 32 33 32 32 32 32 32 32 32 30 30 31 28 24 22 22 21 21 21 21 20 19 19 19 20 20 20 20 20 20 20 19 19 19 19 19 19 19 19 19 19 19 19 19 19 19 19
28 32 32 32 32 32 32 32 32 31 30 29 29 29 28 24 22 22 21 21 20 20 20 20 20 19 19 19 19 20 20 20 19 19 19 19 19 18 18 18 19 19 19 19 19 19 19 19 19
30 32 33 32 32 33 32 32 32 32 31 30 28 25 24 23 22 22 22 21 20 20 20 20 20 19 19 19 19 19 19 19 19 18 18 18 18 18 18 18 19 19 19 19 19 19 19 18 18
30 31 32 31 31 31 32 32 32 33 33 32 30 26 24 23 22 22 22 22 21 21 20 20 19 19 19 19 19 19 18 18 18 18 18 18 18 18 18 18 18 19 19 19 18 18 18 18 18
30 30 30 30 30 30 31 32 33 33 33 31 30 27 25 24 23 23 23 22 21 21 20 20 20 20 20 19 19 18 18 18 18 18 18 18 18 18 18 18 18 18 18 18 18 18 18 18 18
29 30 30 30 30 30 30 32 32 32 31 29 28 26 25 25 24 24 23 22 21 21 20 20 21 21 21 20 19 19 18 19 18 18 18 18 18 18 18 18 18 18 18 18 18 18 18 18 18
29 29 30 30 30 30 31 32 32 32 30 28 27 26 26 26 25 24 23 22 21 21 21 20 21 20 21 20 20 20 19 19 18 18 18 18 18 18 18 18 18 18 18 18 18 18 18 18 18
28 29 31 31 31 30 30 32 32 31 29 29 27 27 26 25 25 24 23 22 22 21 21 20 20 20 20 20 20 19 19 18 18 18 18 18 18 17 17 17 17 17 17 18 18 18 18 17 17
29 30 30 31 31 30 30 31 32 29 29 29 28 26 25 24 24 23 23 22 22 22 21 21 20 20 20 20 19 19 19 18 18 18 18 17 17 17 17 17 17 17 17 17 17 17 17 17 18
29 30 30 30 30 30 30 31 30 29 29 29 27 26 25 24 24 23 23 22 22 21 21 21 20 20 20 19 19 19 19 19 18 18 18 17 17 17 17 17 16 16 16 16 16 17 17 17 17
29 30 29 30 30 30 30 30 30 28 28 29 27 27 25 24 24 23 22 22 22 21 21 21 20 20 20 19 19 19 19 19 18 18 17 17 17 16 16 16 16 16 16 16 16 16 16 16 17
29 29 29 29 29 29 29 29 29 28 28 28 27 26 25 25 24 23 22 22 22 21 21 21 20 20 20 20 19 19 19 19 19 18 17 17 16 16 16 15 15 15 15 15 15 15 16 16 16
28 28 29 29 29 29 29 29 30 29 28 27 27 26 26 25 23 22 22 22 22 21 21 21 21 20 20 20 20 20 20 19 18 18 17 16 16 16 15 15 15 15 15 15 15 15 15 16 16
28 28 28 28 28 29 28 28 29 29 28 27 26 26 25 25 24 23 22 22 22 21 21 21 20 20 20 20 19 19 19 19 18 18 17 16 16 16 16 15 15 15 15 15 15 15 14 15 16
28 28 28 27 27 28 28 27 29 29 28 27 26 25 25 24 24 23 23 22 22 21 21 20 20 20 20 20 19 19 19 19 19 18 17 16 16 15 15 15 15 15 14 14 14 14 14 14 15
28 28 28 27 27 27 27 27 28 27 27 26 25 24 23 22 21 21 21 20 20 20 20 19 19 19 19 19 19 19 19 18 18 17 17 17 15 15 14 14 14 14 14 14 14 14 14 14 14
28 27 27 27 27 26 26 26 26 25 23 24 23 21 19 18 18 18 18 18 19 19 19 19 19 19 19 19 19 19 18 18 18 17 16 16 15 15 14 14 14 14 14 14 14 14 14 14 14
28 27 26 26 26 26 27 26 24 21 21 21 20 18 17 16 16 15 16 16 17 17 18 18 18 18 18 18 18 18 18 18 17 17 16 16 15 15 14 14 14 14 13 14 13 13 13 13 14
27 26 25 25 25 26 27 26 22 20 19 18 17 17 16 15 15 14 14 14 14 14 15 15 16 16 16 16 17 17 17 17 16 16 16 15 15 15 14 14 14 14 13 13 13 13 13 13 14
26 27 27 26 26 25 26 25 21 20 19 18 17 16 15 15 14 14 13 13 13 13 13 13 14 14 14 15 15 16 16 16 16 16 16 15 15 15 14 14 14 13 13 13 13 13 13 13 13
26 26 26 25 24 24 25 25 25 20 19 18 17 16 15 15 14 14 13 13 12 12 12 12 12 13 13 14 14 14 14 15 15 15 15 15 15 15 14 14 13 13 13 13 13 13 13 13 13
26 26 25 26 25 24 24 25 20 18 17 17 16 15 15 14 14 14 13 12 12 12 11 11 11 12 12 12 13 13 13 14 14 14 14 14 14 14 14 14 13 13 13 12 13 13 13 13 13
26 25 25 24 24 24 24 23 17 17 16 16 15 15 14 14 14 13 13 12 11 11 11 11 10 11 11 11 11 11 12 12 12 13 13 13 13 14 14 13 13 13 12 12 12 13 13 13 13
Wind_Speed
9 7 5 5 5 2 9 8 6 6 6 6 5 3 4 5 4 5 7 15 17 19 21 21 19 18 17 16 16 15 15 15 14 13 12 12 11 11 10 10 9 8 8 8 7 7 6 6 6
5 5 5 5 3 6 8 5 6 8 6 4 5 4 4 6 6 7 10 15 18 19 20 20 20 18 17 16 16 15 14 14 13 12 11 11 10 10 9 8 7 7 7 6 6 6 5 5 5
5 6 5 4 1 6 8 6 5 5 4 3 4 5 4 6 6 6 12 18 18 17 18 20 20 18 17 16 15 14 14 13 12 12 11 10 10 9 8 7 6 5 5 5 5 4 5 4 4
4 5 5 5 6 6 5 4 3 3 4 4 4 6 6 6 4 9 17 19 18 17 18 21 20 19 18 16 15 14 14 13 12 12 11 10 9 8 7 6 6 5 4 4 4 4 4 4 4
5 5 6 4 6 5 2 2 0 2 4 5 4 7 7 5 8 15 18 18 18 17 17 21 20 19 18 16 15 14 13 13 12 11 10 10 9 8 7 7 6 6 5 5 5 5 5 5 5
5 5 7 5 6 4 3 1 2 2 3 4 5 8 7 7 10 15 17 16 16 16 16 19 18 17 17 16 15 14 13 13 12 11 11 10 9 8 7 7 7 7 7 7 7 7 6 6 7
7 6 6 4 6 5 3 1 2 1 2 3 4 6 9 10 12 15 15 14 14 14 14 16 18 16 15 14 14 13 13 13 12 12 11 10 10 9 9 9 9 9 9 9 9 9 9 9 9
5 5 6 6 7 5 2 1 1 3 3 4 3 5 8 14 14 15 14 13 13 13 13 13 15 15 15 15 14 13 12 12 12 12 12 11 11 12 12 12 13 12 11 11 12 12 12 12 12
4 7 8 6 5 4 3 1 1 2 5 5 3 5 11 19 17 15 14 12 12 11 11 12 13 13 13 13 14 14 13 14 13 14 14 13 13 13 13 14 9 11 12 13 14 14 14 14 16
5 10 4 2 1 1 3 3 2 6 8 7 8 10 16 19 18 16 15 15 14 13 13 11 11 11 12 11 11 12 13 14 14 13 13 13 12 10 11 4 8 13 14 15 16 17 17 17 15
5 6 1 1 2 5 4 3 2 6 7 7 10 15 19 20 17 16 15 14 13 13 13 13 11 11 11 9 9 9 9 10 12 14 13 12 11 10 11 10 10 13 14 14 13 15 14 13 11
5 5 4 5 4 6 7 5 4 6 2 3 5 17 20 20 18 16 15 13 12 12 13 12 12 11 10 9 8 8 8 8 9 10 12 11 8 9 9 8 10 10 10 10 11 10 12 12 13
7 6 5 6 8 9 10 9 7 6 1 3 10 18 19 18 17 15 13 12 11 11 12 12 11 11 10 9 8 8 8 8 9 9 10 11 9 9 9 8 9 11 11 10 10 11 11 11 12
5 8 9 7 6 5 8 10 9 6 1 6 12 16 17 17 17 15 13 12 12 11 11 11 11 11 10 9 9 8 8 8 9 8 10 11 10 9 9 10 10 11 12 12 11 12 12 12 12
6 8 9 5 4 3 7 13 11 5 4 8 11 14 16 15 15 14 13 12 12 11 11 11 11 11 11 10 10 8 8 8 7 8 10 11 11 11 9 10 11 11 12 13 12 13 12 13 13
7 9 10 4 2 1 6 15 3 4 7 9 11 13 14 14 14 13 12 11 11 11 11 11 10 10 10 9 8 6 7 7 7 7 9 10 10 10 9 9 10 10 11 10 10 11 12 12 13
8 9 7 4 3 2 5 8 3 4 7 9 11 13 13 13 13 12 11 12 11 11 11 11 11 10 9 8 6 6 6 6 7 7 7 7 8 9 8 9 9 10 10 10 11 11 11 12 13
4 5 5 4 3 4 4 4 2 0 4 8 10 11 12 12 12 11 10 10 10 10 10 10 10 9 8 6 5 5 5 6 6 6 5 7 7 8 9 9 9 11 11 11 11 12 12 12 12
2 4 4 2 3 5 5 5 2 1 4 7 9 10 11 11 9 9 9 9 9 9 9 10 9 8 7 5 5 5 5 5 5 6 5 7 8 8 8 10 10 11 12 12 14 13 15 13 12
3 4 5 4 2 7 8 9 6 4 4 5 7 9 10 9 9 8 8 8 8 8 8 8 8 8 8 6 5 4 4 5 6 6 5 7 7 8 9 9 11 11 11 13 13 13 13 13 11
3 5 6 8 8 9 10 13 9 6 5 5 6 7 8 9 9 8 8 7 7 6 6 5 6 7 8 7 6 5 5 6 7 7 6 6 7 8 8 10 11 11 12 12 12 13 15 14 13
5 3 6 9 11 11 6 12 6 4 6 5 4 4 5 5 5 5 5 4 3 3 3 4 5 7 8 9 9 9 8 8 7 6 6 7 7 8 8 9 10 10 11 12 12 13 13 14 14
6 4 8 10 11 12 6 9 1 2 3 4 5 6 6 5 4 5 5 5 4 4 4 4 6 8 8 9 10 10 10 8 7 6 6 8 7 7 8 8 9 10 10 11 12 12 13 12 13
3 6 9 9 9 7 1 7 1 7 10 10 11 12 13 13 14 13 13 12 10 9 7 7 7 7 8 9 10 10 10 9 8 8 8 8 7 7 7 8 9 10 10 11 12 12 14 13 13
7 11 9 8 6 3 1 6 5 9 10 11 12 14 16 17 16 16 17 16 15 15 13 11 9 7 7 8 9 9 9 8 9 9 8 8 8 7 7 8 9 10 10 11 12 12 13 13 14
10 10 10 9 8 6 5 4 7 9 10 12 13 15 16 17 17 17 17 16 15 15 15 14 12 10 8 7 6 6 7 8 8 8 8 8 8 8 8 9 10 11 12 12 12 12 13 12 13
8 7 8 11 13 12 7 3 9 9 10 11 12 14 15 15 15 15 15 15 15 15 15 15 14 13 12 10 8 7 7 8 9 9 9 9 8 8 9 10 11 11 12 12 13 12 12 12 12
5 6 6 8 9 11 9 9 5 6 6 8 10 12 12 13 13 13 13 13 13 13 13 13 13 13 13 13 11 9 9 9 10 10 11 10 10 10 10 11 11 11 12 12 12 12 11 12 11
3 3 5 7 8 11 14 6 6 7 5 6 8 10 11 12 13 12 12 12 12 12 12 12 12 12 13 13 13 13 12 11 11 11 11 12 11 11 11 11 11 12 12 11 11 12 12 12 11
5 4 5 7 9 11 14 4 8 7 5 6 8 10 12 13 13 13 12 12 12 12 12 12 12 12 12 12 13 13 13 13 13 13 13 13 13 13 13 12 12 12 12 11 11 11 11 10 9
Wind_Direction
178 193 223 237 242 127 83 80 69 65 59 50 55 39 43 40 14 67 119 144 143 144 145 154 157 153 148 143 140 139 138 139 140 140 140 139 136 136 136 136 134 129 126 124 124 124 124 124 124
200 206 232 244 245 103 96 86 77 59 70 76 75 70 71 69 53 100 134 144 147 145 148 156 155 156 151 148 147 146 146 146 147 147 148 146 145 145 146 145 145 142 139 138 138 137 136 136 138
212 229 260 251 121 95 100 96 84 88 74 40 64 56 57 65 92 120 138 147 148 144 147 148 156 158 155 153 153 153 153 154 155 156 156 155 154 156 157 158 160 161 159 160 162 161 159 159 162
224 235 243 239 120 91 88 94 101 115 84 61 81 88 84 59 92 127 142 150 148 148 152 149 160 161 160 159 160 162 163 164 165 166 166 167 168 170 173 176 181 185 188 191 192 193 190 190 195
249 262 244 187 127 110 100 49 160 96 63 71 76 96 97 83 104 133 148 153 153 155 154 152 162 164 164 164 166 169 172 174 175 177 179 181 184 188 193 197 203 209 215 219 220 221 220 221 224
256 256 244 177 135 127 106 64 228 116 96 105 103 108 104 117 132 144 152 158 157 157 158 151 162 166 168 170 173 177 180 183 186 188 191 195 201 207 214 219 222 224 228 231 235 238 237 237 237
284 278 252 188 153 142 65 345 234 149 151 118 117 112 126 142 142 149 153 160 159 160 159 158 167 170 173 176 181 185 189 193 197 201 204 208 213 220 227 232 234 235 236 237 240 243 245 245 243
287 272 226 199 177 140 58 282 238 237 146 120 155 135 150 151 149 149 152 160 164 165 168 167 175 174 180 184 188 194 200 204 209 213 217 220 224 227 228 234 228 233 241 244 245 247 247 247 245
265 252 221 192 176 127 42 298 182 202 149 149 121 71 121 141 150 152 156 162 168 173 181 181 180 180 189 193 185 195 205 211 216 220 220 227 237 237 224 230 220 236 247 250 251 252 252 251 244
248 249 206 110 353 2 355 307 271 197 185 170 137 113 132 146 156 163 167 170 176 181 188 190 193 185 197 202 192 208 213 211 220 231 227 229 241 254 260 241 225 244 250 254 252 254 255 251 252
250 264 316 222 315 318 294 270 244 233 209 198 179 155 155 158 166 173 175 177 178 183 188 192 197 194 205 209 214 217 225 225 227 235 240 246 257 254 253 254 234 235 239 247 243 242 249 251 252
261 267 290 295 315 298 289 280 255 244 295 51 166 158 161 167 173 177 176 177 174 184 188 193 193 200 210 221 224 229 235 235 242 238 241 247 252 259 263 262 266 263 254 252 260 260 259 262 263
250 270 284 285 285 284 277 264 271 256 291 118 145 157 166 170 173 177 174 173 174 183 189 192 195 200 206 217 238 240 245 249 245 250 249 251 255 262 268 272 274 274 273 265 257 263 268 266 264
288 288 276 273 276 261 261 257 249 255 183 153 160 167 170 169 171 172 176 179 182 187 190 191 199 202 207 214 225 240 249 248 264 263 263 265 268 272 276 277 275 272 271 272 272 268 267 263 261
279 273 253 229 263 264 268 251 240 268 230 187 175 172 167 168 172 178 182 186 189 191 192 196 202 205 211 221 228 238 249 257 263 271 277 276 273 275 277 279 277 275 277 274 269 267 264 261 259
244 244 237 177 319 276 261 259 237 284 225 202 183 172 169 171 179 184 186 192 195 195 194 201 207 207 214 226 236 249 258 268 272 275 278 282 287 287 286 282 282 288 283 277 272 267 266 263 261
220 234 237 196 33 343 268 279 349 297 221 200 188 179 176 177 187 191 196 200 202 204 203 205 212 217 221 228 238 249 260 269 275 279 283 293 292 294 291 291 294 293 285 280 277 274 269 269 266
216 232 227 242 13 331 306 308 338 298 214 200 191 186 184 187 191 193 201 204 202 204 205 208 208 214 218 220 224 244 256 267 271 281 287 290 290 294 298 292 293 293 289 284 280 281 274 269 269
276 262 255 277 346 314 312 307 297 197 204 201 198 195 198 200 189 191 195 195 192 193 195 199 203 198 202 205 219 228 249 265 274 276 285 285 291 297 294 294 298 288 285 285 285 281 276 269 266
251 259 257 247 297 305 298 289 272 241 230 229 223 213 212 206 196 194 190 185 183 180 183 185 192 192 199 198 213 236 272 276 287 290 285 283 293 297 293 295 292 290 289 282 277 273 275 275 266
276 295 308 307 305 267 279 270 241 222 232 237 247 247 238 226 214 198 191 182 177 174 182 188 193 196 207 206 216 221 237 256 261 271 276 288 299 299 300 296 292 293 287 283 281 279 271 271 268
294 320 304 299 293 293 292 287 258 239 245 255 267 270 266 250 234 210 190 180 192 207 219 223 224 221 217 216 227 237 256 273 293 298 299 301 293 297 298 294 291 288 286 284 278 272 271 269 267
317 320 291 295 290 284 259 275 277 98 324 353 17 19 12 16 25 29 27 20 356 328 296 276 261 249 239 234 235 240 251 265 278 287 288 290 294 292 295 298 297 292 287 286 284 281 271 266 263
288 267 262 258 265 259 240 289 57 47 16 17 35 38 38 37 38 33 28 23 13 358 343 315 288 270 258 248 245 244 254 262 275 279 289 289 295 296 299 300 296 291 289 288 284 280 274 267 265
275 285 286 273 253 264 144 277 66 52 37 38 44 46 46 45 43 39 33 29 22 13 3 349 333 310 291 269 259 253 254 257 259 267 276 284 295 300 305 302 297 294 292 290 287 283 278 272 266
300 287 277 289 292 294 254 266 99 80 68 61 58 54 50 47 44 41 37 33 27 23 17 11 3 351 339 318 298 281 270 263 262 258 274 281 288 297 304 295 292 293 293 292 290 286 279 274 270
299 282 298 282 276 278 274 145 130 103 77 63 57 51 46 41 38 35 32 28 24 22 19 16 13 9 3 353 336 313 295 282 278 272 262 270 274 282 285 287 289 291 292 292 290 284 283 280 275
308 307 280 276 284 283 274 250 196 112 74 60 50 42 34 28 24 22 19 16 14 12 11 10 11 8 4 1 352 339 320 299 285 277 274 273 273 272 276 279 283 287 290 291 290 287 282 281 279
276 260 292 283 285 288 289 300 71 86 67 45 36 24 15 8 5 3 3 1 360 360 0 360 359 357 356 355 351 344 336 322 305 289 281 274 268 266 265 270 276 281 285 289 291 290 288 281 281
281 302 296 294 291 281 282 294 86 87 66 30 9 3 357 351 347 345 346 346 347 348 347 347 344 344 343 341 338 337 334 332 323 310 297 285 272 263 260 261 267 273 278 283 287 290 290 286 285
Height
1511 1510 1511 1513 1506 1493 1499 1497 1493 1494 1493 1498 1499 1498 1498 1501 1504 1513 1518 1519 1522 1524 1526 1528 1531 1534 1538 1541 1543 1546 1547 1549 1550 1552 1553 1554 1555 1556 1556 1557 1558 1558 1559 1559 1560 1560 1560 1561 1561
1513 1512 1514 1511 1495 1502 1505 1496 1496 1497 1499 1501 1501 1502 1502 1506 1511 1514 1516 1519 1522 1525 1527 1529 1532 1535 1538 1541 1544 1546 1548 1550 1551 1552 1554 1555 1556 1557 1557 1558 1558 1559 1560 1560 1560 1561 1561 1561 1561
1513 1513 1514 1500 1492 1499 1502 1497 1498 1499 1501 1502 1503 1504 1506 1510 1514 1515 1517 1519 1523 1526 1528 1530 1533 1536 1539 1542 1545 1547 1549 1550 1551 1553 1554 1555 1556 1557 1557 1558 1558 1559 1559 1560 1560 1560 1560 1561 1561
1515 1515 1510 1497 1496 1496 1496 1497 1498 1498 1501 1503 1503 1506 1510 1514 1515 1516 1517 1521 1524 1527 1530 1531 1534 1536 1539 1542 1545 1547 1549 1550 1552 1553 1554 1555 1556 1556 1557 1557 1558 1558 1558 1559 1559 1559 1559 1559 1560
1516 1512 1499 1494 1495 1496 1497 1499 1499 1498 1500 1502 1503 1506 1512 1515 1515 1517 1519 1523 1526 1529 1531 1532 1534 1537 1540 1542 1545 1547 1548 1550 1551 1553 1554 1555 1555 1556 1556 1556 1557 1557 1557 1557 1558 1558 1558 1558 1558
1515 1505 1498 1497 1497 1497 1497 1500 1498 1498 1501 1504 1505 1506 1513 1516 1517 1519 1521 1525 1528 1531 1533 1533 1535 1538 1540 1543 1545 1546 1548 1549 1551 1552 1553 1554 1555 1555 1555 1555 1555 1555 1556 1556 1556 1556 1556 1556 1557
1513 1501 1495 1494 1498 1498 1499 1499 1498 1498 1501 1503 1505 1506 1513 1517 1519 1520 1523 1526 1530 1532 1534 1534 1536 1538 1540 1542 1544 1546 1547 1549 1550 1551 1552 1553 1553 1554 1554 1554 1554 1554 1554 1554 1554 1555 1555 1555 1555
1513 1503 1497 1495 1498 1499 1499 1499 1499 1498 1500 1505 1506 1506 1511 1516 1518 1521 1523 1526 1530 1532 1534 1535 1537 1538 1540 1542 1544 1545 1547 1548 1549 1550 1551 1551 1552 1552 1552 1552 1552 1552 1552 1552 1552 1552 1553 1553 1552
1513 1505 1497 1495 1497 1498 1499 1498 1498 1499 1501 1505 1506 1508 1510 1514 1518 1521 1524 1526 1528 1530 1533 1536 1538 1539 1540 1543 1543 1544 1545 1546 1547 1548 1549 1549 1550 1552 1551 1551 1550 1550 1550 1550 1550 1550 1550 1550 1549
1510 1501 1495 1498 1498 1498 1499 1499 1497 1497 1499 1503 1507 1509 1510 1513 1517 1520 1523 1525 1527 1528 1531 1534 1537 1538 1540 1542 1543 1543 1545 1545 1545 1547 1547 1547 1548 1549 1550 1549 1548 1548 1547 1547 1547 1547 1546 1546 1547
1506 1500 1500 1501 1501 1501 1499 1497 1497 1495 1493 1497 1502 1507 1509 1512 1516 1519 1522 1525 1526 1528 1530 1532 1534 1535 1537 1539 1541 1542 1544 1544 1544 1545 1545 1545 1545 1546 1546 1546 1546 1545 1544 1544 1545 1544 1544 1544 1544
1507 1504 1505 1503 1503 1502 1499 1497 1495 1495 1494 1499 1501 1504 1507 1511 1515 1518 1521 1524 1526 1527 1529 1531 1532 1533 1535 1537 1539 1540 1541 1542 1543 1543 1542 1542 1542 1542 1543 1542 1543 1543 1542 1541 1541 1541 1540 1539 1539
1506 1504 1505 1504 1503 1501 1500 1497 1497 1495 1497 1499 1501 1504 1507 1511 1515 1518 1521 1523 1525 1526 1528 1530 1530 1531 1533 1534 1536 1537 1539 1540 1540 1539 1539 1539 1539 1539 1539 1538 1537 1537 1537 1537 1536 1535 1535 1534 1534
1506 1505 1503 1501 1500 1500 1499 1495 1496 1494 1498 1500 1501 1504 1507 1510 1514 1517 1520 1522 1524 1525 1527 1529 1529 1531 1532 1533 1534 1535 1536 1536 1536 1536 1536 1536 1535 1534 1534 1533 1532 1532 1531 1531 1530 1529 1529 1528 1528
1507 1503 1497 1497 1498 1498 1498 1493 1492 1495 1497 1499 1501 1504 1507 1510 1513 1516 1518 1520 1523 1524 1526 1527 1528 1529 1530 1531 1532 1533 1533 1534 1533 1533 1533 1532 1531 1531 1530 1529 1527 1527 1526 1525 1524 1523 1523 1522 1522
1502 1500 1497 1493 1496 1496 1498 1492 1488 1495 1496 1497 1500 1503 1506 1509 1512 1515 1517 1519 1521 1523 1524 1525 1527 1528 1529 1530 1530 1531 1532 1532 1532 1531 1530 1529 1528 1527 1526 1525 1523 1522 1520 1519 1518 1517 1517 1516 1515
1499 1498 1495 1494 1495 1494 1494 1491 1492 1494 1494 1496 1499 1503 1506 1509 1511 1513 1515 1517 1519 1520 1522 1523 1525 1526 1528 1528 1529 1529 1530 1530 1529 1529 1528 1527 1525 1524 1522 1521 1519 1517 1516 1515 1513 1512 1511 1510 1509
1500 1497 1498 1496 1495 1493 1492 1492 1492 1494 1494 1495 1498 1501 1505 1507 1510 1512 1513 1515 1516 1518 1519 1521 1522 1524 1525 1527 1527 1528 1528 1528 1528 1527 1525 1524 1522 1521 1519 1517 1515 1513 1512 1510 1509 1507 1505 1504 1503
1501 1501 1500 1498 1496 1495 1494 1492 1491 1493 1494 1495 1497 1500 1503 1506 1508 1510 1511 1512 1514 1515 1516 1519 1521 1522 1523 1525 1526 1527 1527 1527 1526 1524 1522 1520 1518 1516 1513 1512 1510 1508 1507 1505 1503 1502 1500 1499 1499
1501 1502 1500 1497 1496 1497 1495 1493 1489 1492 1493 1495 1496 1498 1501 1504 1506 1508 1509 1510 1512 1514 1516 1517 1519 1521 1522 1523 1523 1524 1524 1524 1522 1520 1518 1516 1513 1511 1509 1507 1505 1503 1501 1498 1496 1495 1494 1493 1494
1501 1501 1501 1501 1497 1494 1496 1493 1488 1489 1493 1495 1497 1499 1500 1502 1505 1507 1508 1510 1512 1513 1515 1516 1517 1518 1520 1520 1521 1521 1520 1519 1519 1517 1515 1512 1509 1506 1504 1501 1499 1497 1495 1493 1491 1489 1488 1487 1487
1503 1499 1501 1502 1502 1497 1497 1502 1486 1487 1490 1493 1496 1498 1500 1502 1504 1506 1508 1510 1512 1513 1515 1515 1515 1516 1517 1517 1518 1518 1518 1517 1516 1513 1511 1508 1505 1502 1499 1497 1494 1492 1490 1487 1485 1484 1482 1481 1480
1500 1500 1500 1499 1500 1500 1496 1500 1489 1490 1494 1494 1497 1500 1502 1503 1504 1506 1508 1510 1512 1513 1513 1513 1513 1513 1514 1514 1514 1514 1514 1513 1512 1509 1507 1504 1502 1498 1495 1493 1490 1487 1485 1482 1480 1477 1476 1475 1473
1500 1501 1499 1497 1495 1505 1499 1503 1499 1501 1506 1504 1505 1507 1507 1506 1507 1507 1507 1508 1509 1511 1511 1511 1510 1510 1510 1510 1510 1510 1509 1508 1507 1505 1503 1501 1499 1496 1493 1489 1486 1483 1481 1478 1475 1472 1470 1468 1467
1499 1503 1509 1508 1504 1502 1495 1500 1508 1513 1514 1513 1512 1512 1511 1510 1509 1508 1508 1507 1508 1508 1507 1507 1506 1506 1506 1505 1505 1505 1504 1503 1502 1501 1500 1497 1495 1492 1489 1486 1483 1480 1477 1474 1471 1468 1465 1463 1461
1498 1502 1514 1519 1511 1500 1492 1497 1510 1516 1519 1518 1518 1517 1515 1514 1513 1512 1511 1510 1509 1508 1506 1504 1503 1502 1501 1500 1499 1499 1498 1498 1498 1496 1494 1492 1490 1488 1485 1481 1479 1476 1473 1470 1467 1464 1461 1458 1456
1499 1496 1493 1501 1500 1504 1494 1496 1513 1515 1518 1520 1520 1519 1519 1518 1518 1516 1515 1514 1512 1509 1507 1504 1502 1500 1498 1496 1495 1494 1493 1492 1492 1490 1488 1487 1485 1483 1480 1477 1475 1472 1469 1466 1463 1460 1457 1454 1451
1501 1497 1499 1502 1511 1510 1497 1493 1493 1510 1518 1521 1523 1523 1523 1522 1520 1519 1517 1515 1513 1510 1508 1504 1501 1499 1496 1494 1492 1491 1489 1487 1486 1484 1483 1481 1480 1478 1476 1474 1471 1468 1466 1463 1459 1456 1453 1450 1447
1501 1500 1501 1498 1501 1511 1508 1498 1510 1517 1522 1523 1525 1525 1525 1524 1522 1520 1518 1515 1513 1510 1507 1504 1500 1497 1494 1491 1489 1486 1484 1482 1480 1478 1476 1475 1474 1472 1471 1469 1467 1464 1462 1459 1456 1453 1449 1446 1443
1498 1499 1500 1508 1505 1500 1503 1505 1517 1521 1524 1526 1527 1526 1525 1524 1522 1519 1517 1514 1511 1507 1504 1501 1498 1494 1491 1488 1485 1483 1480 1477 1474 1472 1470 1469 1467 1466 1465 1463 1462 1460 1458 1455 1452 1449 1446 1442 1440